EW1179 Weather Reports


Display with metric or nautical units.
time (UTC)temp
F
wind
direction
speed
MPH
gust
MPH
rain 1hr
in
rain 24hr
in
rain mn
in
humidity
%
barometer
mb
20210618184725 88 239 2.0 9.0 0.00 0.00 0.00 33 1005.1
20210618183109 88 232 1.0 7.0 0.00 0.00 0.00 33 1005.1
20210618181611 88 251 0.0 7.0 0.00 0.00 0.00 35 1004.9
20210618180105 88 205 0.0 4.0 0.00 0.00 0.00 35 1005.1
20210618174612 86 239 0.0 5.0 0.00 0.00 0.00 36 1005.2
20210618173102 85 261 0.0 2.0 0.00 0.00 0.00 36 1005.2
20210618171547 85 255 1.0 6.0 0.00 0.00 0.00 35 1005.2
20210618170037 86 227 0.0 1.0 0.00 0.00 0.00 34 1005.4
20210618164548 85 270 0.0 2.0 0.00 0.00 0.00 34 1005.2
20210618163037 83 321 0.0 5.0 0.00 0.00 0.00 35 1005.1
20210618161601 81 124 0.0 1.0 0.00 0.00 0.00 35 1005.2
20210618160013 78 130 0.0 1.0 0.00 0.00 0.00 36 1005.1
20210618154511 76 101 0.0 1.0 0.00 0.00 0.00 37 1005.1
20210618153004 75 129 0.0 1.0 0.00 0.00 0.00 43 1005.1
20210618151643 71 294 0.0 1.0 0.00 0.00 0.00 43 1005.0
20210618150137 68 294 0.0 1.0 0.00 0.00 0.00 46 1005.2
20210618144729 65 294 0.0 0.0 0.00 0.00 0.00 48 1005.6
20210618143116 64 294 0.0 1.0 0.00 0.00 0.00 49 1005.7
20210618141647 62 293 0.0 0.0 0.00 0.00 0.00 52 1005.6
20210618140125 61 293 0.0 0.0 0.00 0.00 0.00 51 1005.5
20210618134627 60 293 0.0 3.0 0.00 0.00 0.00 52 1005.7
20210618133156 60 293 0.0 0.0 0.00 0.00 0.00 51 1005.4
20210618131556 60 294 0.0 0.0 0.00 0.00 0.00 51 1005.5
20210618130135 60 294 0.0 0.0 0.00 0.00 0.00 50 1005.7
20210618124629 60 294 0.0 0.0 0.00 0.00 0.00 50 1005.5
20210618123105 60 294 0.0 0.0 0.00 0.00 0.00 50 1005.1
20210618121555 60 294 0.0 0.0 0.00 0.00 0.00 49 1005.0
20210618120114 61 294 0.0 0.0 0.00 0.00 0.00 49 1005.1
20210618114549 61 294 0.0 0.0 0.00 0.00 0.00 48 1005.1
20210618113029 61 294 0.0 0.0 0.00 0.00 0.00 48 1005.2
20210618111606 62 294 0.0 0.0 0.00 0.00 0.00 47 1005.1
20210618110121 62 294 0.0 0.0 0.00 0.00 0.00 47 1005.0
20210618104554 62 294 0.0 0.0 0.00 0.00 0.00 46 1004.9
20210618103104 63 294 0.0 0.0 0.00 0.00 0.00 46 1005.1
20210618101533 63 294 0.0 0.0 0.00 0.00 0.00 45 1005.0
20210618100023 63 294 0.0 0.0 0.00 0.00 0.00 45 1005.2
20210618094546 64 294 0.0 0.0 0.00 0.00 0.00 44 1005.2
20210618093032 64 294 0.0 0.0 0.00 0.00 0.00 44 1005.2
20210618091514 64 294 0.0 0.0 0.00 0.00 0.00 43 1005.3
20210618090029 65 294 0.0 0.0 0.00 0.00 0.00 43 1005.4
20210618084516 65 294 0.0 0.0 0.00 0.00 0.00 42 1005.4
20210618083033 65 294 0.0 0.0 0.00 0.00 0.00 41 1005.5
20210618081501 66 293 0.0 0.0 0.00 0.00 0.00 40 1005.5
20210618080131 66 294 0.0 0.0 0.00 0.00 0.00 40 1005.5
20210618074806 67 293 0.0 1.0 0.00 0.00 0.00 39 1005.6
20210618073143 68 294 0.0 0.0 0.00 0.00 0.00 38 1005.6
20210618071736 68 294 0.0 0.0 0.00 0.00 0.00 38 1005.7
20210618070158 69 293 0.0 0.0 0.00 0.00 0.00 37 1005.7
20210618064649 70 293 0.0 0.0 0.00 0.00 0.00 36 1005.9
20210618063157 71 294 0.0 0.0 0.00 0.00 0.00 35 1005.8
20210618061637 71 294 0.0 0.0 0.00 0.00 0.00 34 1005.7
20210618060127 72 293 0.0 1.0 0.00 0.00 0.00 34 1005.8
20210618054653 73 198 0.0 0.0 0.00 0.00 0.00 32 1005.8
20210618053100 74 196 0.0 0.0 0.00 0.00 0.00 31 1005.8
20210618051622 74 196 0.0 0.0 0.00 0.00 0.00 31 1005.7
20210618050126 75 200 0.0 0.0 0.00 0.00 0.00 30 1005.6
20210618044655 76 178 0.0 0.0 0.00 0.00 0.00 29 1005.5
20210618043133 77 219 0.0 0.0 0.00 0.00 0.00 29 1005.3
20210618041650 77 126 0.0 2.0 0.00 0.00 0.00 29 1005.2
20210618040148 78 283 0.0 0.0 0.00 0.00 0.00 27 1005.1
20210618034632 80 309 0.0 0.0 0.00 0.00 0.00 26 1005.0
20210618033054 81 309 0.0 0.0 0.00 0.00 0.00 25 1004.9
20210618031608 81 308 0.0 0.0 0.00 0.00 0.00 24 1004.8
20210618030128 81 304 0.0 9.0 0.00 0.00 0.00 24 1004.8
20210618024620 82 169 0.0 5.0 0.00 0.00 0.00 24 1004.8
20210618023055 83 306 1.0 9.0 0.00 0.00 0.00 22 1004.5
20210618021604 84 219 2.0 9.0 0.00 0.00 0.00 21 1004.2
20210618020108 84 249 3.0 12.0 0.00 0.00 0.00 22 1004.1
20210618014607 84 225 2.0 11.0 0.00 0.00 0.00 23 1003.9
20210618013133 85 263 2.0 17.0 0.00 0.00 0.00 25 1003.7
20210618011633 86 232 1.0 8.0 0.00 0.00 0.00 24 1003.7
20210618010117 86 213 4.0 11.0 0.00 0.00 0.00 27 1003.8
20210618004618 87 267 2.0 10.0 0.00 0.00 0.00 26 1003.8
20210618003136 87 241 4.0 11.0 0.00 0.00 0.00 26 1003.9
20210618001609 88 262 2.0 11.0 0.00 0.00 0.00 25 1004.0
20210618000049 89 276 2.0 16.0 0.00 0.00 0.00 26 1004.0
20210617234554 90 223 5.0 11.0 0.00 0.00 0.00 26 1004.0
20210617233055 90 211 4.0 10.0 0.00 0.00 0.00 27 1004.0
20210617231545 90 269 6.0 15.0 0.00 0.00 0.00 28 1004.1
20210617230109 92 213 4.0 10.0 0.00 0.00 0.00 28 1004.0
20210617224615 92 230 3.0 14.0 0.00 0.00 0.00 28 1003.9
20210617223109 94 218 4.0 15.0 0.00 0.00 0.00 27 1004.0
20210617221604 96 272 2.0 7.0 0.00 0.00 0.00 26 1004.1
20210617220105 96 265 1.0 11.0 0.00 0.00 0.00 25 1004.2
20210617213034 98 260 0.0 8.0 0.00 0.00 0.00 24 1004.4
20210617211530 99 260 2.0 9.0 0.00 0.00 0.00 23 1004.5
20210617210117 101 192 1.0 10.0 0.00 0.00 0.00 21 1004.6
20210617204523 105 100 1.0 5.0 0.00 0.00 0.00 15 1004.9
20210617203054 104 93 0.0 8.0 0.00 0.00 0.00 12 1004.9
20210617201550 103 122 1.0 5.0 0.00 0.00 0.00 12 1005.1
20210617200017 103 199 0.0 3.0 0.00 0.00 0.00 13 1005.2
20210617194535 103 360 0.0 7.0 0.00 0.00 0.00 13 1005.6
20210617193012 102 309 0.0 6.0 0.00 0.00 0.00 12 1005.6
20210617191502 101 111 0.0 3.0 0.00 0.00 0.00 12 1005.7
20210617190219 100 96 0.0 8.0 0.00 0.00 0.00 14 1005.8